Location: Unspecified
(0.0000°N, 0.0000°E)
Time: 11:29:10
(UTC+00:00)

A-11 Canister half - Pass Details

Date: 02 August 2021
Orbit: 1526 x 1683 km, 47.3° (Epoch: 27 September)

Event Time Altitude Azimuth Distance (km) Brightness Sun altitude
Rises 05:24:45 0° 185° (S) 4,808 11.4 -9.9°
Reaches altitude 10° 05:30:45 10° 157° (SSE) 3,861 11.2 -8.5°
Maximum altitude 05:34:22 12° 135° (SE) 3,691 11.4 -7.6°
Drops below altitude 10° 05:38:00 10° 113° (ESE) 3,900 11.9 -6.7°
Sets 05:44:03 0° 86° (E) 4,912 13.6 -5.3°
